Temperature
10 10 10 10 9 9 9 8 8 7 8 8 7 7 7 7 6 6 6 6 5 5 5 5 4 4 3 3 3 2 2 1 1 0 0 -0 -0 -0
10 10 10 9 9 9 9 8 8 7 7 7 7 7 7 6 6 6 5 5 5 5 4 4 3 3 3 2 2 2 1 1 0 -0 -1 -1 -1 -1
10 10 10 9 9 9 8 8 7 7 6 7 6 6 6 6 5 5 5 5 4 4 4 3 3 2 2 2 1 1 0 -0 -1 -1 -1 -2 -2 -2
10 10 10 9 9 8 8 8 7 7 7 6 6 6 6 5 5 4 4 4 4 3 3 3 2 2 1 1 1 0 -0 -1 -1 -2 -2 -2 -2 -3
10 10 10 9 9 8 8 8 7 7 6 6 6 5 5 5 4 4 3 3 3 3 2 2 1 1 1 0 0 -0 -1 -1 -2 -2 -3 -3 -3 -3
10 10 9 9 8 8 8 7 7 6 6 6 5 5 4 4 4 3 3 3 2 2 2 1 1 0 -0 -0 -1 -1 -2 -2 -3 -3 -3 -3 -4 -4
9 9 9 9 8 8 8 7 7 6 6 5 5 4 4 3 3 3 2 2 2 1 1 0 -0 -1 -1 -1 -2 -2 -3 -3 -3 -4 -4 -4 -4 -4
9 9 8 8 8 7 7 7 6 6 5 5 4 4 3 3 3 2 2 1 0 0 -0 -0 -1 -1 -2 -2 -2 -3 -3 -4 -4 -4 -4 -4 -4 -4
9 8 8 7 7 7 6 6 6 5 5 5 4 4 3 3 2 2 1 1 0 -0 -1 -1 -1 -2 -2 -3 -3 -3 -4 -4 -4 -4 -4 -4 -5 -5
8 7 7 7 6 6 6 5 5 5 4 4 3 3 3 2 2 1 1 0 -1 -1 -2 -2 -2 -2 -3 -3 -3 -4 -4 -4 -4 -4 -4 -5 -5 -5
7 7 6 6 6 6 5 5 5 4 4 3 3 2 2 2 1 0 -0 -1 -2 -2 -2 -3 -3 -4 -3 -3 -4 -4 -4 -4 -5 -5 -5 -5 -5 -5
6 6 6 5 5 5 5 5 4 4 3 3 2 2 1 1 0 -0 -1 -2 -2 -3 -3 -4 -4 -5 -5 -4 -4 -5 -5 -5 -5 -5 -5 -5 -5 -5
6 5 5 5 5 4 4 4 4 3 3 2 1 1 1 -0 -1 -1 -2 -2 -3 -4 -4 -5 -5 -6 -6 -6 -5 -5 -5 -5 -5 -5 -5 -6 -6 -6
5 5 5 4 4 4 3 3 3 2 2 1 1 0 -1 -1 -1 -2 -2 -3 -4 -4 -4 -5 -5 -6 -7 -7 -6 -6 -6 -6 -6 -6 -6 -6 -6 -6
4 4 4 4 3 3 3 2 2 2 1 0 -0 -1 -1 -2 -2 -3 -3 -4 -4 -5 -5 -5 -6 -6 -7 -7 -7 -6 -6 -6 -6 -6 -6 -6 -6 -6
3 3 3 3 2 2 2 1 1 1 0 -0 -1 -2 -2 -3 -3 -4 -4 -4 -5 -5 -5 -6 -6 -6 -7 -7 -7 -7 -7 -7 -7 -7 -7 -6 -6 -6
3 2 2 1 1 1 1 0 0 -0 -1 -1 -2 -2 -3 -3 -4 -4 -5 -5 -5 -6 -6 -6 -6 -7 -7 -7 -7 -7 -7 -7 -7 -7 -7 -7 -6 -7
2 2 1 1 1 0 0 -0 -1 -1 -2 -2 -3 -3 -4 -4 -4 -5 -5 -6 -6 -6 -6 -6 -7 -7 -7 -7 -7 -7 -7 -7 -7 -7 -7 -7 -7 -6
1 1 1 0 -0 -0 -1 -1 -2 -2 -2 -3 -3 -4 -4 -5 -5 -5 -6 -6 -6 -7 -7 -7 -7 -8 -8 -8 -7 -7 -7 -8 -8 -7 -7 -8 -7 -6
0 0 -0 -0 -1 -1 -1 -2 -2 -3 -3 -3 -4 -4 -5 -5 -5 -6 -6 -6 -7 -7 -7 -7 -8 -8 -8 -8 -8 -7 -7 -8 -8 -8 -7 -7 -7 -6
-0 -1 -1 -1 -1 -2 -2 -2 -3 -3 -4 -4 -4 -5 -5 -6 -6 -6 -7 -7 -7 -7 -7 -8 -8 -8 -8 -8 -8 -7 -7 -7 -8 -8 -8 -8 -8 -7
-1 -1 -2 -2 -2 -2 -3 -3 -3 -4 -4 -5 -5 -5 -6 -6 -6 -7 -7 -7 -7 -8 -8 -8 -8 -8 -8 -8 -8 -8 -7 -7 -7 -7 -8 -8 -8 -8
-2 -2 -2 -2 -2 -3 -3 -3 -4 -4 -5 -5 -5 -6 -6 -7 -7 -7 -7 -8 -8 -8 -8 -8 -8 -8 -8 -8 -8 -8 -8 -8 -7 -7 -7 -7 -7 -7
Wind_Speed
16 17 14 12 11 11 10 10 9 9 10 9 7 6 6 6 6 7 8 7 8 9 10 10 12 13 14 15 16 17 18 18 18 19 20 21 21 21
14 16 15 12 11 10 10 10 10 10 9 6 6 5 6 5 6 7 7 6 8 9 9 10 11 13 14 14 15 16 16 17 17 18 19 20 20 21
16 16 16 14 11 10 10 10 10 10 12 9 6 5 6 6 5 6 6 7 7 8 9 11 12 12 13 13 14 15 16 16 17 18 18 19 20 21
17 16 16 13 15 12 10 11 11 11 10 11 7 6 7 6 6 6 5 6 7 8 10 11 11 12 12 13 14 14 15 15 16 17 18 19 20 20
17 17 16 16 16 13 12 12 10 9 9 9 7 4 4 4 5 5 6 6 6 7 9 10 11 11 12 13 14 14 14 15 16 17 18 19 19 20
15 15 16 16 16 15 13 13 10 10 9 8 7 5 4 4 4 5 5 5 6 6 7 8 10 12 13 13 13 13 13 14 16 17 18 18 18 18
14 14 14 15 15 13 10 11 11 9 8 8 7 6 5 4 5 4 6 5 6 5 5 6 7 8 9 10 10 11 13 15 16 17 18 18 17 18
14 13 12 13 14 14 14 14 13 12 11 9 8 8 8 7 5 5 5 4 5 3 5 7 6 7 7 8 9 12 14 15 16 16 17 17 18 19
13 11 9 10 13 12 13 13 12 12 12 10 9 9 8 7 6 6 6 6 5 4 4 7 6 8 7 8 11 13 14 15 15 16 17 18 18 19
12 12 11 11 11 11 10 9 8 9 9 8 8 7 6 6 6 6 5 4 4 4 4 5 5 7 7 8 10 11 13 14 15 16 17 18 18 19
10 10 11 11 12 13 11 9 8 6 6 7 6 5 5 5 5 3 3 2 4 4 3 4 5 7 8 7 7 10 13 14 15 16 17 17 18 18
8 8 10 10 12 13 11 10 9 7 7 6 6 5 5 6 7 6 5 4 3 3 2 3 4 4 5 5 6 7 9 12 14 15 16 16 16 12
7 7 7 12 13 13 11 9 10 8 7 6 5 5 4 4 4 4 4 4 4 4 3 3 4 4 4 5 7 7 8 8 9 11 13 14 14 12
7 6 7 11 12 11 9 8 10 9 6 5 5 5 4 4 3 3 3 3 4 5 5 4 4 5 6 7 7 7 8 8 8 8 9 12 12 13
6 8 9 11 10 8 9 10 9 7 6 6 6 5 4 3 3 2 2 2 3 4 5 6 6 6 6 7 7 8 8 8 8 8 8 9 9 9
6 7 9 10 7 6 7 7 6 6 6 6 5 3 3 3 3 2 2 2 2 3 3 5 6 7 7 9 9 10 9 7 7 9 9 9 9 9
7 5 5 6 5 5 5 5 5 5 5 5 5 4 4 3 3 2 2 2 3 3 3 3 5 7 9 9 8 9 9 9 9 9 9 10 10 9
8 6 6 6 6 6 6 6 5 5 5 5 4 5 4 4 3 2 2 3 3 4 4 4 4 4 4 6 9 9 8 8 9 9 9 10 11 10
6 6 6 6 6 6 6 6 5 5 5 5 5 5 4 4 3 3 3 3 3 4 4 3 3 4 5 6 5 7 7 8 9 9 9 9 11 11
5 6 6 6 6 6 6 5 5 5 5 4 4 4 4 4 4 3 3 3 3 4 4 4 4 4 5 6 5 6 9 9 8 9 9 9 10 12
5 5 5 5 6 6 5 5 5 5 5 4 4 4 4 4 4 3 3 4 4 4 4 5 4 6 5 5 6 7 7 8 10 9 9 9 9 8
5 5 5 5 5 6 5 5 5 5 5 4 4 4 4 4 4 4 4 4 4 4 5 5 4 4 4 5 7 9 9 9 10 13 13 11 7 5
5 5 5 5 5 5 5 5 5 5 4 4 4 4 4 4 3 3 3 3 3 4 4 4 3 3 4 5 7 8 10 10 8 8 8 10 13 16
Wind_Direction
219 220 222 223 222 223 226 229 237 253 254 244 230 217 219 223 218 233 245 243 255 268 275 282 285 288 291 293 295 297 298 300 300 298 297 296 298 299
215 217 220 222 222 222 222 224 228 239 254 250 236 224 211 223 223 235 244 244 250 262 272 281 285 289 291 293 295 296 298 299 301 300 300 299 300 300
214 217 219 218 219 219 218 220 224 229 245 252 244 235 223 226 227 237 244 248 253 256 269 278 283 285 289 293 295 298 299 299 301 301 301 301 300 300
215 216 219 217 219 219 217 219 223 224 234 248 245 231 232 230 234 240 246 252 262 261 266 274 277 282 289 292 295 296 298 299 300 299 299 299 300 300
217 217 219 217 219 219 218 220 222 222 225 238 244 234 235 230 240 246 250 255 265 268 266 267 270 278 285 288 292 293 295 296 297 298 299 299 299 300
220 220 220 219 219 218 217 218 217 216 220 229 236 235 235 230 234 246 254 254 266 269 263 269 272 275 277 282 286 289 291 294 296 298 299 300 300 300
221 221 222 219 218 216 213 213 209 213 215 220 228 230 226 221 229 235 252 265 266 257 267 271 276 274 276 277 279 285 291 295 297 297 298 298 299 299
219 220 219 217 215 213 212 211 207 208 211 215 222 228 231 229 228 231 246 262 269 244 272 276 273 273 276 279 283 288 291 294 297 300 300 300 299 299
218 216 214 213 210 214 211 208 211 213 213 215 219 226 228 223 217 227 233 246 260 276 279 272 272 276 281 282 283 284 287 292 297 299 299 299 300 299
216 213 211 210 207 203 202 204 212 217 215 217 223 225 223 212 207 217 229 249 275 268 257 265 278 285 291 284 277 279 286 291 295 297 298 298 299 299
214 211 208 208 199 187 190 197 204 213 202 197 206 207 195 188 182 181 196 231 264 263 250 262 283 297 291 279 274 281 287 290 293 296 298 299 300 300
209 207 203 203 193 185 193 195 201 203 188 185 190 189 187 180 184 195 199 219 255 254 229 258 282 307 293 281 286 291 289 290 293 295 296 298 301 299
203 202 201 191 191 191 195 201 200 191 185 182 183 183 183 185 191 198 202 215 233 250 238 250 271 279 272 288 293 290 291 295 297 295 294 297 299 295
200 198 194 188 191 192 196 192 179 173 172 173 182 189 191 194 194 202 211 231 245 251 248 246 256 264 274 283 286 292 298 296 295 294 298 301 298 293
193 183 181 182 186 191 187 179 172 170 170 178 188 194 192 183 178 192 211 226 258 259 247 249 253 260 262 266 277 289 299 298 294 295 300 301 298 296
169 167 168 169 172 178 177 172 172 173 173 177 176 173 166 174 190 199 220 233 262 269 253 255 257 259 263 267 270 277 286 287 293 301 302 299 295 289
160 156 163 167 170 167 163 161 161 161 166 167 168 170 175 186 199 205 221 236 253 266 275 275 270 268 262 262 267 271 280 287 290 298 301 297 294 290
155 165 173 177 176 171 167 165 167 171 170 168 172 178 184 190 198 205 216 236 251 264 274 285 295 296 282 258 238 262 277 287 295 296 294 293 293 294
161 171 175 175 171 168 168 168 173 172 167 172 179 183 185 193 199 207 218 236 253 266 274 278 281 284 289 295 267 236 269 291 295 293 289 288 289 293
167 167 168 168 167 168 169 168 165 165 168 173 181 186 188 193 200 211 223 236 253 265 271 271 267 269 269 282 286 279 271 278 288 292 294 294 291 288
167 163 163 163 163 164 165 165 166 169 172 177 185 190 193 196 204 215 227 235 248 258 266 272 275 280 278 274 277 282 285 281 282 284 292 296 299 295
162 161 160 161 162 163 162 162 164 168 173 181 190 195 196 197 202 213 224 233 245 257 268 279 285 278 269 268 282 291 300 306 299 287 275 268 279 287
161 161 160 162 163 162 163 165 168 176 180 184 189 193 193 195 201 213 224 235 250 260 273 283 289 282 276 276 284 293 301 309 310 311 301 291 285 279
Height
1456 1458 1460 1462 1463 1464 1466 1467 1469 1467 1466 1466 1465 1464 1463 1463 1462 1461 1459 1458 1457 1455 1453 1451 1449 1446 1444 1441 1438 1436 1433 1430 1427 1425 1423 1421 1419 1417
1448 1450 1452 1454 1455 1457 1458 1459 1460 1460 1459 1459 1459 1458 1457 1456 1456 1454 1453 1452 1450 1449 1447 1444 1442 1440 1437 1434 1431 1429 1426 1423 1421 1418 1416 1414 1412 1410
1440 1442 1443 1446 1447 1449 1450 1451 1452 1453 1452 1452 1452 1452 1450 1450 1449 1448 1447 1445 1444 1442 1440 1438 1435 1433 1430 1427 1424 1422 1419 1416 1414 1411 1409 1407 1405 1403
1431 1433 1435 1438 1439 1441 1442 1443 1444 1445 1445 1445 1445 1445 1444 1443 1443 1442 1440 1439 1437 1435 1433 1431 1429 1426 1424 1421 1418 1415 1412 1410 1407 1405 1403 1400 1398 1396
1423 1425 1427 1430 1431 1433 1434 1435 1437 1438 1438 1438 1438 1438 1437 1436 1436 1435 1434 1432 1431 1429 1427 1424 1422 1419 1417 1414 1411 1408 1406 1403 1400 1398 1396 1394 1391 1389
1415 1417 1419 1421 1423 1425 1426 1428 1429 1430 1431 1431 1431 1430 1430 1429 1429 1428 1427 1426 1424 1423 1421 1418 1416 1413 1410 1407 1404 1402 1399 1396 1394 1392 1389 1387 1385 1383
1407 1409 1411 1413 1415 1417 1418 1420 1421 1422 1423 1423 1423 1423 1423 1423 1422 1421 1420 1419 1417 1416 1414 1412 1410 1406 1404 1401 1398 1396 1393 1391 1388 1386 1383 1381 1379 1376
1399 1401 1403 1406 1407 1409 1411 1412 1414 1415 1415 1416 1416 1416 1416 1416 1416 1415 1414 1413 1411 1410 1408 1405 1403 1400 1398 1395 1392 1390 1387 1385 1382 1380 1377 1375 1373 1370
1391 1393 1395 1397 1400 1402 1403 1405 1406 1407 1408 1409 1409 1409 1409 1410 1410 1409 1408 1407 1405 1403 1402 1398 1397 1394 1392 1389 1387 1384 1382 1379 1376 1374 1371 1369 1366 1364
1384 1386 1388 1390 1392 1394 1396 1397 1399 1400 1401 1402 1403 1403 1403 1403 1403 1403 1402 1401 1399 1398 1396 1393 1391 1389 1386 1383 1381 1379 1376 1374 1371 1368 1366 1363 1361 1358
1376 1379 1381 1383 1385 1387 1389 1390 1392 1393 1395 1395 1396 1397 1397 1397 1397 1397 1396 1395 1393 1392 1390 1389 1385 1383 1380 1378 1376 1373 1371 1369 1366 1363 1360 1357 1355 1352
1369 1371 1374 1376 1378 1380 1382 1383 1385 1386 1388 1388 1389 1390 1390 1390 1391 1390 1390 1389 1387 1386 1384 1384 1381 1379 1375 1373 1371 1369 1366 1364 1361 1358 1355 1352 1349 1346
1362 1364 1367 1370 1372 1374 1376 1377 1378 1381 1381 1382 1383 1383 1384 1384 1384 1384 1384 1383 1382 1381 1380 1379 1377 1375 1373 1368 1365 1364 1361 1358 1356 1353 1350 1347 1344 1341
1356 1358 1361 1363 1366 1367 1369 1371 1373 1374 1375 1376 1377 1377 1378 1378 1378 1379 1379 1378 1377 1376 1375 1374 1372 1370 1368 1364 1361 1358 1357 1354 1351 1348 1345 1342 1339 1337
1350 1353 1355 1358 1360 1361 1363 1365 1366 1368 1369 1370 1371 1372 1373 1373 1374 1374 1373 1373 1372 1371 1370 1369 1368 1366 1364 1361 1357 1354 1352 1349 1346 1343 1340 1337 1334 1332
1345 1348 1350 1352 1354 1356 1357 1359 1361 1362 1363 1365 1366 1367 1368 1369 1369 1369 1369 1368 1367 1366 1366 1365 1363 1362 1359 1357 1354 1351 1348 1345 1342 1339 1336 1333 1330 1327
1339 1341 1344 1346 1348 1350 1352 1353 1356 1357 1359 1360 1362 1362 1363 1364 1365 1365 1364 1364 1363 1362 1361 1361 1359 1358 1355 1353 1350 1347 1344 1341 1339 1336 1332 1328 1326 1323
1334 1336 1338 1340 1342 1344 1346 1348 1351 1353 1355 1356 1357 1358 1359 1360 1360 1360 1360 1360 1359 1358 1357 1356 1355 1353 1351 1348 1347 1343 1340 1337 1335 1332 1328 1324 1321 1319
1329 1331 1333 1335 1338 1340 1342 1345 1347 1349 1351 1352 1353 1354 1355 1356 1356 1356 1356 1356 1355 1355 1354 1353 1351 1349 1347 1345 1342 1340 1337 1333 1330 1327 1324 1321 1317 1314
1325 1327 1329 1332 1334 1337 1339 1341 1343 1345 1347 1349 1350 1351 1352 1352 1352 1353 1352 1352 1352 1351 1350 1349 1348 1346 1345 1343 1339 1336 1334 1330 1327 1323 1320 1317 1313 1310
1322 1325 1327 1329 1332 1334 1336 1339 1340 1342 1343 1345 1346 1347 1348 1348 1349 1349 1349 1349 1348 1348 1347 1346 1345 1344 1342 1339 1336 1332 1330 1328 1324 1321 1317 1313 1309 1305
1320 1322 1325 1327 1329 1332 1334 1335 1337 1339 1340 1341 1343 1344 1344 1345 1345 1345 1346 1346 1345 1344 1344 1343 1342 1340 1338 1336 1333 1330 1326 1324 1321 1318 1315 1311 1308 1303
1317 1320 1322 1325 1327 1329 1331 1332 1334 1335 1337 1338 1339 1340 1341 1341 1342 1342 1343 1343 1342 1342 1341 1340 1338 1337 1335 1333 1331 1328 1324 1321 1318 1315 1312 1309 1306 1303